Location: Augustenthal
(51.7167°N, 10.2833°E)
Time: 11:36:22
(UTC+00:00)

ISS - Pass Details

Date: 22 September 2021
Orbit: 418 x 423 km, 51.6° (Epoch: 19 October)

Event Time Altitude Azimuth Distance (km) Brightness Sun altitude
Rises 20:27:28 0° 277° (W) 2,368 0.8 -27.9°
Reaches altitude 10° 20:29:34 10° 276° (W) 1,504 -0.3 -28.1°
Enters shadow 20:30:13 15° 276° (W) 1,238 -0.8 -28.2°
